| time (UTC) | temp C | wind direction | speed KPH | gust KPH | rain 1hr cm | rain 24hr cm | rain mn cm | humidity % | barometer mb |
| 20260507023200 | 12 | 278 | 0.0 | 0.0 | 0.00 | 0.86 | 0.86 | 99 | 1004.1 |
| 20260507022657 | 12 | 296 | 0.0 | 1.6 | 0.00 | 0.86 | 0.86 | 99 | 1004.2 |
| 20260507022152 | 12 | 233 | 1.6 | 1.6 | 0.00 | 0.86 | 0.86 | 99 | 1004.0 |
| 20260507021649 | 12 | 213 | 1.6 | 3.2 | 0.00 | 0.86 | 0.86 | 99 | 1004.2 |
| 20260507021144 | 12 | 262 | 1.6 | 1.6 | 0.00 | 0.86 | 0.86 | 99 | 1004.0 |
| 20260507020643 | 12 | 262 | 0.0 | 0.0 | 0.00 | 0.86 | 0.86 | 99 | 1004.2 |
| 20260507020139 | 12 | 271 | 0.0 | 1.6 | 0.00 | 0.86 | 0.86 | 99 | 1004.2 |
| 20260507015637 | 12 | 250 | 0.0 | 1.6 | 0.00 | 0.86 | 0.86 | 99 | 1004.2 |
| 20260507015134 | 12 | 248 | 1.6 | 1.6 | 0.00 | 0.86 | 0.86 | 99 | 1004.3 |
| 20260507014631 | 12 | 223 | 1.6 | 3.2 | 0.00 | 0.86 | 0.86 | 99 | 1004.1 |
| 20260507014127 | 12 | 235 | 1.6 | 1.6 | 0.00 | 0.86 | 0.86 | 99 | 1004.5 |
| 20260507013624 | 12 | 158 | 3.2 | 3.2 | 0.00 | 0.86 | 0.86 | 99 | 1004.4 |
| 20260507013121 | 12 | 211 | 3.2 | 4.8 | 0.00 | 0.86 | 0.86 | 99 | 1004.6 |
| 20260507012618 | 12 | 232 | 3.2 | 3.2 | 0.00 | 0.86 | 0.86 | 99 | 1004.5 |
| 20260507012113 | 12 | 225 | 1.6 | 1.6 | 0.00 | 0.86 | 0.86 | 99 | 1004.4 |
| 20260507011612 | 12 | 269 | 1.6 | 1.6 | 0.00 | 0.86 | 0.86 | 99 | 1004.5 |
| 20260507011108 | 12 | 223 | 1.6 | 3.2 | 0.13 | 0.86 | 0.86 | 99 | 1004.6 |
| 20260507010603 | 12 | 270 | 1.6 | 1.6 | 0.13 | 0.86 | 0.86 | 99 | 1004.6 |
| 20260507010059 | 12 | 207 | 6.4 | 9.7 | 0.00 | 0.84 | 0.84 | 99 | 1004.7 |
| 20260507005556 | 12 | 130 | 1.6 | 3.2 | 0.00 | 0.84 | 0.84 | 99 | 1004.5 |
| 20260507005052 | 12 | 261 | 0.0 | 0.0 | 0.00 | 0.84 | 0.84 | 99 | 1004.8 |
| 20260507004549 | 12 | 176 | 3.2 | 4.8 | 0.00 | 0.84 | 0.84 | 99 | 1004.7 |
| 20260507004047 | 12 | 92 | 4.8 | 4.8 | 0.00 | 0.84 | 0.84 | 99 | 1004.6 |
| 20260507003543 | 13 | 228 | 1.6 | 3.2 | 0.00 | 0.84 | 0.84 | 99 | 1004.5 |
| 20260507003038 | 13 | 170 | 3.2 | 3.2 | 0.00 | 0.84 | 0.84 | 99 | 1004.6 |
| 20260507002535 | 13 | 229 | 4.8 | 4.8 | 0.00 | 0.84 | 0.84 | 99 | 1004.6 |
| 20260507002030 | 13 | 160 | 4.8 | 4.8 | 0.00 | 0.84 | 0.84 | 99 | 1004.6 |
| 20260507001527 | 13 | 200 | 3.2 | 6.4 | 0.00 | 0.84 | 0.84 | 99 | 1004.6 |
| 20260507001020 | 13 | 140 | 0.0 | 1.6 | 0.00 | 0.84 | 0.84 | 99 | 1004.7 |
| 20260507000515 | 13 | 216 | 3.2 | 4.8 | 0.00 | 0.84 | 0.84 | 99 | 1004.7 |
| 20260507000011 | 13 | 31 | 1.6 | 3.2 | 0.00 | 0.84 | 0.84 | 99 | 1004.6 |
| 20260506235508 | 13 | 254 | 3.2 | 4.8 | 0.00 | 0.84 | 0.84 | 99 | 1004.8 |
| 20260506235004 | 13 | 213 | 3.2 | 4.8 | 0.00 | 0.84 | 0.84 | 99 | 1004.7 |
| 20260506234502 | 13 | 186 | 4.8 | 4.8 | 0.00 | 0.84 | 0.84 | 99 | 1004.7 |
| 20260506233959 | 13 | 187 | 6.4 | 6.4 | 0.00 | 0.84 | 0.84 | 99 | 1004.9 |
| 20260506233455 | 13 | 199 | 3.2 | 3.2 | 0.00 | 0.84 | 0.84 | 99 | 1004.6 |
| 20260506232951 | 13 | 287 | 3.2 | 4.8 | 0.00 | 0.84 | 0.84 | 99 | 1004.7 |
| 20260506232448 | 13 | 279 | 3.2 | 3.2 | 0.00 | 0.84 | 0.84 | 99 | 1004.7 |
| 20260506231944 | 13 | 199 | 9.7 | 12.9 | 0.00 | 0.84 | 0.84 | 99 | 1004.9 |
| 20260506231441 | 13 | 218 | 6.4 | 6.4 | 0.00 | 0.84 | 0.84 | 99 | 1004.5 |
| 20260506230938 | 13 | 155 | 4.8 | 9.7 | 0.00 | 0.84 | 0.84 | 99 | 1004.6 |
| 20260506230435 | 13 | 210 | 4.8 | 6.4 | 0.00 | 0.84 | 0.84 | 99 | 1004.7 |
| 20260506225932 | 13 | 202 | 3.2 | 4.8 | 0.00 | 0.84 | 0.84 | 99 | 1004.9 |
| 20260506225429 | 13 | 217 | 3.2 | 4.8 | 0.00 | 0.84 | 0.84 | 99 | 1005.0 |
| 20260506224926 | 13 | 194 | 1.6 | 3.2 | 0.00 | 0.84 | 0.84 | 99 | 1004.9 |
| 20260506224423 | 13 | 197 | 3.2 | 4.8 | 0.00 | 0.84 | 0.84 | 99 | 1005.1 |
| 20260506223919 | 13 | 192 | 3.2 | 4.8 | 0.00 | 0.84 | 0.84 | 99 | 1005.1 |
| 20260506223415 | 13 | 220 | 3.2 | 4.8 | 0.00 | 0.84 | 0.84 | 99 | 1005.0 |
| 20260506222912 | 13 | 203 | 8.0 | 11.3 | 0.00 | 0.84 | 0.84 | 99 | 1005.0 |
| 20260506222409 | 13 | 179 | 9.7 | 14.5 | 0.00 | 0.84 | 0.84 | 99 | 1005.0 |
| 20260506221906 | 13 | 288 | 1.6 | 1.6 | 0.00 | 0.84 | 0.84 | 99 | 1005.2 |
| 20260506221403 | 13 | 184 | 3.2 | 4.8 | 0.18 | 0.84 | 0.84 | 99 | 1005.4 |
| 20260506220901 | 13 | 132 | 3.2 | 3.2 | 0.18 | 0.84 | 0.84 | 99 | 1005.3 |
| 20260506220356 | 13 | 138 | 4.8 | 6.4 | 0.00 | 0.81 | 0.81 | 99 | 1005.1 |
| 20260506215853 | 13 | 207 | 4.8 | 9.7 | 0.00 | 0.81 | 0.81 | 99 | 1005.5 |
| 20260506215348 | 13 | 288 | 6.4 | 9.7 | 0.00 | 0.81 | 0.81 | 99 | 1005.4 |
| 20260506214844 | 13 | 242 | 3.2 | 3.2 | 0.00 | 0.81 | 0.81 | 99 | 1005.1 |
| 20260506214341 | 13 | 77 | 3.2 | 3.2 | 0.00 | 0.81 | 0.81 | 99 | 1005.3 |
| 20260506213840 | 13 | 209 | 3.2 | 6.4 | 0.00 | 0.81 | 0.81 | 99 | 1005.5 |
| 20260506213337 | 13 | 250 | 3.2 | 3.2 | 0.00 | 0.81 | 0.81 | 99 | 1005.4 |
| 20260506212834 | 13 | 151 | 3.2 | 4.8 | 0.13 | 0.81 | 0.81 | 99 | 1005.2 |
| 20260506212329 | 13 | 264 | 4.8 | 4.8 | 0.13 | 0.81 | 0.81 | 99 | 1005.5 |
| 20260506211825 | 13 | 228 | 3.2 | 6.4 | 0.00 | 0.79 | 0.79 | 99 | 1005.5 |
| 20260506211321 | 13 | 287 | 6.4 | 6.4 | 0.18 | 0.79 | 0.79 | 99 | 1005.7 |
| 20260506210819 | 13 | 80 | 3.2 | 3.2 | 0.30 | 0.79 | 0.79 | 99 | 1005.5 |
| 20260506210315 | 13 | 128 | 1.6 | 3.2 | 0.48 | 0.76 | 0.76 | 99 | 1005.7 |
| 20260506205813 | 13 | 188 | 3.2 | 3.2 | 0.79 | 0.76 | 0.76 | 99 | 1005.7 |
| 20260506205308 | 13 | 276 | 0.0 | 1.6 | 0.79 | 0.71 | 0.71 | 99 | 1005.7 |
| 20260506204805 | 13 | 199 | 3.2 | 4.8 | 0.43 | 0.64 | 0.64 | 99 | 1006.1 |
| 20260506204303 | 13 | 238 | 1.6 | 1.6 | 0.30 | 0.58 | 0.58 | 99 | 1005.8 |
| 20260506203800 | 13 | 238 | 0.0 | 1.6 | 0.30 | 0.56 | 0.56 | 99 | 1005.8 |
| 20260506203257 | 13 | 282 | 1.6 | 1.6 | 0.13 | 0.53 | 0.53 | 99 | 1005.8 |
| 20260506202754 | 13 | 232 | 1.6 | 1.6 | 0.00 | 0.51 | 0.51 | 99 | 1005.7 |
| 20260506202251 | 13 | 263 | 1.6 | 1.6 | 0.00 | 0.51 | 0.51 | 99 | 1005.7 |
| 20260506201747 | 13 | 227 | 3.2 | 4.8 | 0.00 | 0.51 | 0.51 | 99 | 1005.9 |
| 20260506201244 | 14 | 104 | 1.6 | 3.2 | 0.18 | 0.51 | 0.51 | 99 | 1006.0 |
| 20260506200742 | 14 | 178 | 3.2 | 3.2 | 0.18 | 0.51 | 0.51 | 99 | 1005.9 |
| 20260506200238 | 13 | 257 | 0.0 | 1.6 | 0.00 | 0.48 | 0.48 | 99 | 1005.8 |
| 20260506195735 | 13 | 275 | 0.0 | 0.0 | 0.00 | 0.48 | 0.48 | 99 | 1005.9 |
| 20260506195231 | 13 | 208 | 1.6 | 3.2 | 0.13 | 0.48 | 0.48 | 99 | 1005.9 |
| 20260506194728 | 13 | 313 | 0.0 | 0.0 | 0.79 | 0.48 | 0.48 | 99 | 1006.2 |
| 20260506194225 | 14 | 213 | 3.2 | 3.2 | 0.97 | 0.46 | 0.46 | 99 | 1006.4 |
| 20260506193723 | 14 | 106 | 1.6 | 1.6 | 0.61 | 0.36 | 0.36 | 99 | 1006.5 |
| 20260506193219 | 14 | 266 | 0.0 | 1.6 | 0.61 | 0.30 | 0.30 | 98 | 1006.4 |
| 20260506192715 | 14 | 248 | 1.6 | 1.6 | 0.48 | 0.28 | 0.28 | 98 | 1006.3 |
| 20260506192212 | 14 | 238 | 1.6 | 3.2 | 0.13 | 0.20 | 0.20 | 97 | 1006.3 |
| 20260506191709 | 14 | 219 | 4.8 | 4.8 | 0.00 | 0.18 | 0.18 | 97 | 1006.5 |
| 20260506191205 | 14 | 70 | 1.6 | 1.6 | 0.18 | 0.18 | 0.18 | 97 | 1006.4 |
| 20260506190702 | 14 | 200 | 3.2 | 6.4 | 0.48 | 0.18 | 0.18 | 96 | 1006.3 |
| 20260506190153 | 15 | 279 | 3.2 | 4.8 | 0.43 | 0.15 | 0.15 | 95 | 1006.8 |
| 20260506185651 | 15 | 253 | 3.2 | 4.8 | 0.30 | 0.10 | 0.10 | 94 | 1006.8 |
| 20260506185147 | 15 | 274 | 4.8 | 9.7 | 0.18 | 0.08 | 0.08 | 92 | 1006.6 |
| 20260506184645 | 15 | 253 | 6.4 | 9.7 | 0.18 | 0.05 | 0.05 | 90 | 1006.5 |
| 20260506184142 | 15 | 300 | 4.8 | 4.8 | 0.30 | 0.05 | 0.05 | 90 | 1006.4 |
| 20260506183638 | 15 | 94 | 4.8 | 6.4 | 0.13 | 0.03 | 0.03 | 88 | 1006.3 |
| 20260506183134 | 16 | 302 | 1.6 | 1.6 | 0.00 | 0.00 | 0.00 | 88 | 1006.3 |
| 20260506182632 | 16 | 203 | 6.4 | 9.7 | 0.00 | 0.00 | 0.00 | 86 | 1006.2 |
| 20260506182128 | 16 | 203 | 8.0 | 11.3 | 0.00 | 0.00 | 0.00 | 84 | 1006.4 |
| 20260506181626 | 16 | 217 | 4.8 | 6.4 | 0.00 | 0.00 | 0.00 | 81 | 1006.3 |
| 20260506181123 | 16 | 196 | 4.8 | 6.4 | 0.00 | 0.00 | 0.00 | 82 | 1006.2 |
| 20260506180620 | 16 | 187 | 8.0 | 11.3 | 0.00 | 0.00 | 0.00 | 80 | 1006.3 |
| 20260506180117 | 17 | 201 | 6.4 | 11.3 | 0.00 | 0.00 | 0.00 | 81 | 1006.2 |
| 20260506175613 | 17 | 150 | 6.4 | 6.4 | 0.00 | 0.00 | 0.00 | 80 | 1006.2 |
| 20260506175109 | 17 | 171 | 8.0 | 11.3 | 0.00 | 0.00 | 0.00 | 80 | 1006.1 |
| 20260506174608 | 17 | 284 | 3.2 | 6.4 | 0.00 | 0.00 | 0.00 | 81 | 1006.3 |
| 20260506174104 | 18 | 151 | 3.2 | 4.8 | 0.00 | 0.00 | 0.00 | 78 | 1006.3 |
| 20260506173602 | 18 | 135 | 6.4 | 20.9 | 0.00 | 0.00 | 0.00 | 79 | 1006.2 |
| 20260506173058 | 18 | 128 | 8.0 | 11.3 | 0.00 | 0.00 | 0.00 | 79 | 1006.3 |
| 20260506172555 | 17 | 179 | 8.0 | 11.3 | 0.00 | 0.00 | 0.00 | 80 | 1006.6 |
| 20260506172046 | 17 | 207 | 1.6 | 3.2 | 0.00 | 0.00 | 0.00 | 81 | 1006.5 |
| 20260506171543 | 17 | 29 | 3.2 | 4.8 | 0.00 | 0.00 | 0.00 | 81 | 1006.8 |
| 20260506171040 | 17 | 331 | 3.2 | 3.2 | 0.00 | 0.00 | 0.00 | 81 | 1006.8 |
| 20260506170538 | 17 | 164 | 1.6 | 3.2 | 0.00 | 0.00 | 0.00 | 83 | 1006.9 |
| 20260506170030 | 17 | 172 | 4.8 | 6.4 | 0.00 | 0.00 | 0.00 | 81 | 1007.1 |
| 20260506165528 | 17 | 177 | 4.8 | 4.8 | 0.00 | 0.00 | 0.00 | 81 | 1007.2 |
| 20260506165024 | 17 | 173 | 1.6 | 3.2 | 0.00 | 0.00 | 0.00 | 81 | 1007.1 |
| 20260506164521 | 17 | 241 | 3.2 | 3.2 | 0.00 | 0.00 | 0.00 | 81 | 1007.1 |
| 20260506164018 | 17 | 218 | 1.6 | 1.6 | 0.00 | 0.00 | 0.00 | 81 | 1007.2 |
| 20260506163514 | 17 | 321 | 3.2 | 3.2 | 0.00 | 0.00 | 0.00 | 81 | 1007.4 |
| 20260506163010 | 17 | 140 | 3.2 | 4.8 | 0.00 | 0.00 | 0.00 | 82 | 1007.7 |
| 20260506162507 | 17 | 138 | 3.2 | 4.8 | 0.00 | 0.00 | 0.00 | 82 | 1007.7 |
| 20260506162004 | 17 | 270 | 0.0 | 0.0 | 0.00 | 0.00 | 0.00 | 82 | 1007.8 |
| 20260506161501 | 17 | 167 | 3.2 | 4.8 | 0.00 | 0.00 | 0.00 | 82 | 1007.9 |
| 20260506160958 | 17 | 52 | 3.2 | 3.2 | 0.00 | 0.00 | 0.00 | 82 | 1008.2 |
| 20260506160456 | 17 | 154 | 3.2 | 4.8 | 0.00 | 0.00 | 0.00 | 83 | 1008.1 |
| 20260506155953 | 17 | 225 | 0.0 | 1.6 | 0.00 | 0.00 | 0.00 | 82 | 1008.4 |
| 20260506155451 | 17 | 152 | 0.0 | 1.6 | 0.00 | 0.00 | 0.00 | 83 | 1008.4 |
| 20260506153623 | 17 | 169 | 3.2 | 3.2 | 0.00 | 0.00 | 0.00 | 83 | 1008.3 |
| 20260506153121 | 17 | 262 | 0.0 | 0.0 | 0.00 | 0.00 | 0.00 | 83 | 1008.6 |
| 20260506152617 | 16 | 56 | 3.2 | 4.8 | 0.00 | 0.00 | 0.00 | 84 | 1008.3 |
| 20260506152115 | 16 | 235 | 1.6 | 3.2 | 0.00 | 0.00 | 0.00 | 84 | 1008.6 |
| 20260506151613 | 16 | 176 | 3.2 | 4.8 | 0.00 | 0.00 | 0.00 | 84 | 1008.6 |
| 20260506151109 | 16 | 233 | 1.6 | 3.2 | 0.00 | 0.00 | 0.00 | 84 | 1008.6 |
| 20260506150606 | 16 | 310 | 1.6 | 1.6 | 0.00 | 0.00 | 0.00 | 84 | 1008.2 |
| 20260506145600 | 16 | 71 | 1.6 | 1.6 | 0.00 | 0.00 | 0.00 | 84 | 1008.4 |
| 20260506145057 | 15 | 335 | 0.0 | 1.6 | 0.00 | 0.00 | 0.00 | 85 | 1008.3 |
| 20260506144554 | 15 | 314 | 0.0 | 1.6 | 0.00 | 0.00 | 0.00 | 84 | 1008.5 |
| 20260506144051 | 15 | 220 | 3.2 | 3.2 | 0.00 | 0.00 | 0.00 | 85 | 1008.1 |
| 20260506143549 | 15 | 231 | 3.2 | 3.2 | 0.00 | 0.00 | 0.00 | 84 | 1008.2 |
| 20260506143047 | 16 | 144 | 3.2 | 3.2 | 0.00 | 0.00 | 0.00 | 83 | 1008.2 |
| 20260506142544 | 16 | 277 | 0.0 | 0.0 | 0.00 | 0.00 | 0.00 | 85 | 1008.2 |
| 20260506142042 | 16 | 193 | 3.2 | 3.2 | 0.00 | 0.00 | 0.00 | 84 | 1008.3 |
| 20260506141540 | 16 | 228 | 1.6 | 3.2 | 0.00 | 0.00 | 0.00 | 84 | 1008.2 |
| 20260506141038 | 16 | 121 | 3.2 | 4.8 | 0.00 | 0.00 | 0.00 | 85 | 1008.2 |
| 20260506140535 | 16 | 85 | 4.8 | 6.4 | 0.00 | 0.00 | 0.00 | 84 | 1008.6 |
| 20260506140032 | 16 | 205 | 1.6 | 1.6 | 0.00 | 0.00 | 0.00 | 84 | 1008.8 |
| 20260506135529 | 16 | 59 | 3.2 | 3.2 | 0.00 | 0.00 | 0.00 | 84 | 1008.8 |
| 20260506135025 | 16 | 171 | 3.2 | 4.8 | 0.00 | 0.00 | 0.00 | 83 | 1008.7 |
| 20260506134522 | 16 | 140 | 1.6 | 1.6 | 0.00 | 0.00 | 0.00 | 84 | 1008.8 |
| 20260506134018 | 16 | 258 | 0.0 | 0.0 | 0.00 | 0.00 | 0.00 | 84 | 1008.5 |
| 20260506133515 | 16 | 267 | 0.0 | 1.6 | 0.00 | 0.00 | 0.00 | 84 | 1008.7 |
| 20260506133012 | 16 | 218 | 1.6 | 1.6 | 0.00 | 0.00 | 0.00 | 84 | 1008.8 |
| 20260506132509 | 16 | 161 | 0.0 | 1.6 | 0.00 | 0.00 | 0.00 | 85 | 1008.6 |
| 20260506132006 | 15 | 223 | 0.0 | 0.0 | 0.00 | 0.00 | 0.00 | 84 | 1008.6 |
| 20260506131503 | 16 | 235 | 1.6 | 1.6 | 0.00 | 0.00 | 0.00 | 84 | 1008.6 |
| 20260506130954 | 16 | 72 | 3.2 | 3.2 | 0.00 | 0.00 | 0.00 | 83 | 1008.6 |
| 20260506130451 | 16 | 255 | 1.6 | 1.6 | 0.00 | 0.00 | 0.00 | 83 | 1008.5 |
| 20260506125948 | 15 | 108 | 1.6 | 3.2 | 0.00 | 0.00 | 0.00 | 85 | 1008.8 |
| 20260506125447 | 15 | 188 | 0.0 | 1.6 | 0.00 | 0.00 | 0.00 | 84 | 1008.5 |
| 20260506124944 | 15 | 199 | 3.2 | 4.8 | 0.00 | 0.00 | 0.00 | 83 | 1008.7 |
| 20260506124442 | 16 | 282 | 3.2 | 3.2 | 0.00 | 0.00 | 0.00 | 84 | 1008.6 |
| 20260506123940 | 16 | 86 | 3.2 | 4.8 | 0.00 | 0.00 | 0.00 | 82 | 1008.7 |
| 20260506123438 | 15 | 235 | 1.6 | 3.2 | 0.00 | 0.00 | 0.00 | 84 | 1008.7 |
| 20260506122935 | 15 | 242 | 1.6 | 1.6 | 0.00 | 0.00 | 0.00 | 85 | 1008.7 |
| 20260506122431 | 15 | 240 | 0.0 | 1.6 | 0.00 | 0.00 | 0.00 | 86 | 1008.7 |
| 20260506121930 | 14 | 174 | 1.6 | 1.6 | 0.00 | 0.00 | 0.00 | 88 | 1008.7 |
| 20260506121426 | 14 | 225 | 1.6 | 3.2 | 0.00 | 0.00 | 0.00 | 86 | 1008.9 |
| 20260506120923 | 13 | 250 | 0.0 | 0.0 | 0.00 | 0.00 | 0.00 | 88 | 1008.9 |
| 20260506120421 | 13 | 294 | 0.0 | 0.0 | 0.00 | 0.00 | 0.00 | 89 | 1008.8 |
| 20260506115918 | 13 | 287 | 0.0 | 0.0 | 0.00 | 0.00 | 0.00 | 89 | 1009.1 |
| 20260506115416 | 13 | 332 | 0.0 | 0.0 | 0.00 | 0.00 | 0.00 | 89 | 1008.9 |
| 20260506114914 | 13 | 301 | 0.0 | 0.0 | 0.00 | 0.00 | 0.00 | 89 | 1009.0 |
| 20260506114411 | 13 | 22 | 1.6 | 1.6 | 0.00 | 0.00 | 0.00 | 89 | 1009.1 |
| 20260506113910 | 12 | 292 | 0.0 | 0.0 | 0.00 | 0.00 | 0.00 | 89 | 1008.9 |
| 20260506113407 | 12 | 251 | 0.0 | 0.0 | 0.00 | 0.00 | 0.00 | 90 | 1009.1 |
| 20260506112903 | 12 | 301 | 0.0 | 0.0 | 0.00 | 0.00 | 0.00 | 90 | 1009.4 |
| 20260506112401 | 12 | 284 | 0.0 | 0.0 | 0.00 | 0.00 | 0.00 | 90 | 1009.5 |
| 20260506111858 | 12 | 339 | 0.0 | 0.0 | 0.00 | 0.00 | 0.00 | 91 | 1009.3 |
| 20260506111356 | 12 | 311 | 1.6 | 1.6 | 0.00 | 0.00 | 0.00 | 90 | 1009.2 |
| 20260506110853 | 12 | 223 | 0.0 | 0.0 | 0.00 | 0.00 | 0.00 | 91 | 1009.7 |
| 20260506110350 | 12 | 286 | 0.0 | 0.0 | 0.00 | 0.00 | 0.00 | 91 | 1009.5 |
| 20260506105847 | 12 | 342 | 1.6 | 1.6 | 0.00 | 0.00 | 0.00 | 91 | 1009.5 |
| 20260506105343 | 11 | 281 | 0.0 | 0.0 | 0.00 | 0.00 | 0.00 | 92 | 1009.5 |
| 20260506104841 | 11 | 287 | 0.0 | 0.0 | 0.00 | 0.00 | 0.00 | 92 | 1009.4 |
| 20260506104339 | 11 | 285 | 0.0 | 0.0 | 0.00 | 0.00 | 0.00 | 92 | 1009.5 |
| 20260506103836 | 11 | 310 | 0.0 | 0.0 | 0.00 | 0.00 | 0.00 | 92 | 1009.3 |
| 20260506103334 | 11 | 292 | 0.0 | 0.0 | 0.00 | 0.00 | 0.00 | 92 | 1009.4 |
| 20260506102831 | 11 | 275 | 0.0 | 0.0 | 0.00 | 0.00 | 0.00 | 92 | 1009.1 |
| 20260506102329 | 11 | 296 | 0.0 | 0.0 | 0.00 | 0.00 | 0.00 | 93 | 1009.0 |
| 20260506101826 | 11 | 313 | 0.0 | 0.0 | 0.00 | 0.00 | 0.00 | 93 | 1008.9 |
| 20260506101321 | 11 | 229 | 0.0 | 0.0 | 0.00 | 0.00 | 0.00 | 92 | 1009.2 |
| 20260506100820 | 11 | 289 | 0.0 | 0.0 | 0.00 | 0.00 | 0.00 | 93 | 1009.3 |
| 20260506100318 | 10 | 294 | 0.0 | 0.0 | 0.00 | 0.00 | 0.00 | 94 | 1009.1 |
| 20260506095816 | 10 | 296 | 0.0 | 0.0 | 0.00 | 0.00 | 0.00 | 94 | 1008.9 |
| 20260506095313 | 10 | 287 | 0.0 | 0.0 | 0.00 | 0.00 | 0.00 | 94 | 1008.8 |
| 20260506094809 | 10 | 280 | 0.0 | 0.0 | 0.00 | 0.00 | 0.00 | 94 | 1009.1 |
| 20260506094308 | 10 | 290 | 0.0 | 0.0 | 0.00 | 0.00 | 0.00 | 94 | 1009.2 |
| 20260506093806 | 10 | 296 | 0.0 | 0.0 | 0.00 | 0.00 | 0.00 | 93 | 1008.9 |
| 20260506093302 | 10 | 316 | 0.0 | 0.0 | 0.00 | 0.00 | 0.00 | 93 | 1008.8 |
| 20260506092801 | 10 | 301 | 0.0 | 0.0 | 0.00 | 0.00 | 0.00 | 93 | 1009.0 |
| 20260506092258 | 11 | 302 | 0.0 | 0.0 | 0.00 | 0.00 | 0.00 | 92 | 1008.9 |
| 20260506091755 | 11 | 311 | 0.0 | 0.0 | 0.00 | 0.00 | 0.00 | 92 | 1009.1 |
| 20260506091253 | 11 | 294 | 0.0 | 0.0 | 0.00 | 0.00 | 0.00 | 92 | 1009.0 |
| 20260506090751 | 11 | 291 | 0.0 | 0.0 | 0.00 | 0.00 | 0.00 | 92 | 1009.0 |
| 20260506090247 | 11 | 298 | 0.0 | 0.0 | 0.00 | 0.00 | 0.00 | 92 | 1008.8 |
| 20260506085744 | 11 | 281 | 0.0 | 0.0 | 0.00 | 0.00 | 0.00 | 91 | 1008.7 |
| 20260506085240 | 11 | 289 | 0.0 | 0.0 | 0.00 | 0.00 | 0.00 | 91 | 1008.8 |
| 20260506084737 | 11 | 291 | 0.0 | 0.0 | 0.00 | 0.00 | 0.00 | 91 | 1008.8 |
| 20260506084233 | 11 | 291 | 0.0 | 0.0 | 0.00 | 0.00 | 0.00 | 90 | 1008.7 |
| 20260506083730 | 11 | 284 | 0.0 | 0.0 | 0.00 | 0.00 | 0.00 | 89 | 1008.5 |
| 20260506083228 | 12 | 278 | 0.0 | 0.0 | 0.00 | 0.00 | 0.00 | 89 | 1008.6 |
| 20260506082725 | 12 | 215 | 0.0 | 0.0 | 0.00 | 0.00 | 0.00 | 89 | 1008.8 |
| 20260506082221 | 12 | 279 | 0.0 | 0.0 | 0.00 | 0.00 | 0.00 | 89 | 1008.5 |
| 20260506081719 | 12 | 261 | 0.0 | 0.0 | 0.00 | 0.00 | 0.00 | 90 | 1008.4 |
| 20260506081216 | 11 | 8 | 1.6 | 3.2 | 0.00 | 0.00 | 0.00 | 90 | 1008.6 |
| 20260506080714 | 12 | 306 | 0.0 | 0.0 | 0.00 | 0.00 | 0.00 | 90 | 1008.7 |
| 20260506080210 | 12 | 275 | 0.0 | 0.0 | 0.00 | 0.00 | 0.00 | 89 | 1008.7 |
| 20260506073154 | 12 | 319 | 0.0 | 0.0 | 0.00 | 0.00 | 0.00 | 88 | 1008.7 |
| 20260506072650 | 12 | 285 | 0.0 | 0.0 | 0.00 | 0.00 | 0.00 | 88 | 1008.5 |
| 20260506072148 | 12 | 321 | 0.0 | 0.0 | 0.00 | 0.00 | 0.00 | 88 | 1008.4 |
| 20260506071646 | 12 | 300 | 0.0 | 0.0 | 0.00 | 0.00 | 0.00 | 87 | 1008.5 |
| 20260506071143 | 12 | 329 | 0.0 | 0.0 | 0.00 | 0.00 | 0.00 | 87 | 1008.4 |
| 20260506070640 | 12 | 31 | 0.0 | 0.0 | 0.00 | 0.00 | 0.00 | 87 | 1008.3 |
| 20260506070137 | 12 | 294 | 0.0 | 0.0 | 0.00 | 0.00 | 0.00 | 87 | 1008.2 |
| 20260506062114 | 11 | 260 | 0.0 | 0.0 | 0.00 | 0.00 | 0.00 | 91 | 1008.0 |
| 20260506061610 | 11 | 290 | 0.0 | 0.0 | 0.00 | 0.00 | 0.00 | 91 | 1007.9 |
| 20260506061108 | 11 | 314 | 0.0 | 0.0 | 0.00 | 0.00 | 0.00 | 91 | 1008.0 |
| 20260506060606 | 11 | 298 | 0.0 | 0.0 | 0.00 | 0.00 | 0.00 | 91 | 1008.0 |
| 20260506051035 | 12 | 357 | 1.6 | 1.6 | 0.00 | 0.00 | 0.00 | 88 | 1007.9 |
| 20260506050533 | 12 | 325 | 0.0 | 0.0 | 0.00 | 0.00 | 0.00 | 88 | 1008.4 |
| 20260506045023 | 12 | 345 | 1.6 | 1.6 | 0.00 | 0.00 | 0.00 | 88 | 1008.1 |
| 20260506044521 | 12 | 5 | 0.0 | 1.6 | 0.00 | 0.00 | 0.00 | 88 | 1008.2 |
| 20260506044018 | 12 | 292 | 0.0 | 0.0 | 0.00 | 0.00 | 0.00 | 87 | 1008.1 |
| 20260506043515 | 12 | 273 | 0.0 | 0.0 | 0.00 | 0.00 | 0.00 | 87 | 1008.0 |
| 20260506043013 | 12 | 316 | 0.0 | 0.0 | 0.00 | 0.00 | 0.00 | 86 | 1008.0 |
| 20260506042512 | 12 | 258 | 0.0 | 0.0 | 0.00 | 0.00 | 0.00 | 87 | 1008.0 |
| 20260506042010 | 12 | 313 | 0.0 | 0.0 | 0.00 | 0.00 | 0.00 | 86 | 1008.1 |
| 20260506041508 | 12 | 301 | 0.0 | 0.0 | 0.00 | 0.00 | 0.00 | 85 | 1008.1 |
| 20260506041005 | 13 | 329 | 0.0 | 0.0 | 0.00 | 0.00 | 0.00 | 86 | 1007.9 |
| 20260506040503 | 13 | 336 | 0.0 | 1.6 | 0.00 | 0.00 | 0.00 | 84 | 1008.1 |
| 20260506035958 | 13 | 211 | 1.6 | 1.6 | 0.00 | 0.00 | 0.00 | 83 | 1008.2 |
| 20260506035455 | 13 | 270 | 0.0 | 0.0 | 0.00 | 0.00 | 0.00 | 83 | 1008.2 |
| 20260506034951 | 13 | 251 | 0.0 | 0.0 | 0.00 | 0.00 | 0.00 | 82 | 1008.2 |
| 20260506034449 | 13 | 321 | 1.6 | 1.6 | 0.00 | 0.00 | 0.00 | 82 | 1008.0 |
| 20260506033946 | 14 | 280 | 0.0 | 0.0 | 0.00 | 0.00 | 0.00 | 83 | 1007.9 |
| 20260506033444 | 14 | 335 | 1.6 | 1.6 | 0.00 | 0.00 | 0.00 | 81 | 1007.9 |
| 20260506032940 | 14 | 248 | 0.0 | 0.0 | 0.00 | 0.00 | 0.00 | 82 | 1008.0 |
| 20260506032437 | 14 | 251 | 0.0 | 0.0 | 0.00 | 0.00 | 0.00 | 82 | 1007.9 |
| 20260506031934 | 13 | 286 | 0.0 | 0.0 | 0.00 | 0.00 | 0.00 | 83 | 1007.8 |
| 20260506031431 | 13 | 282 | 0.0 | 0.0 | 0.00 | 0.00 | 0.00 | 84 | 1007.9 |
| 20260506030929 | 14 | 289 | 0.0 | 0.0 | 0.00 | 0.00 | 0.00 | 84 | 1007.8 |
| 20260506030427 | 14 | 342 | 0.0 | 0.0 | 0.00 | 0.00 | 0.00 | 84 | 1007.9 |
| 20260506025923 | 14 | 291 | 0.0 | 0.0 | 0.00 | 0.00 | 0.00 | 83 | 1007.7 |
| 20260506025420 | 15 | 286 | 0.0 | 0.0 | 0.00 | 0.00 | 0.00 | 82 | 1007.8 |
| 20260506024917 | 15 | 323 | 0.0 | 0.0 | 0.00 | 0.00 | 0.00 | 81 | 1007.7 |
| 20260506024414 | 15 | 271 | 0.0 | 0.0 | 0.00 | 0.00 | 0.00 | 80 | 1007.9 |
| 20260506023910 | 15 | 289 | 0.0 | 0.0 | 0.00 | 0.00 | 0.00 | 78 | 1008.1 |